JST1UB LKPR-EDDH

Flight info

Callsign JST1UB
Flight time 1h 2m
Altitude 34000
Route VENOX DCT DEKOV Y621 ESLOR M748 RARUP RARUP6A
Aircraft A320/M-SDE3FGHIRWY/LB1

Departure

Time 2026-05-07 18:48
Airport Václav Havel Airport Prague (LKPR)

Arrival

Time 2026-05-07 19:51
Airport Hamburg Helmut Schmidt Airport (EDDH)
Time Latitude Longitude Altitude Speed Heading
2026-05-07 18:14 50.10714 14.26332 1147 ft 0 kts 214°
2026-05-07 18:31 50.10715 14.26332 1174 ft 0 kts 214°
2026-05-07 18:34 50.10722 14.26340 1169 ft 3 kts 214°
2026-05-07 18:34 50.10737 14.26356 1169 ft 3 kts 214°
2026-05-07 18:34 50.10751 14.26371 1171 ft 3 kts 214°
2026-05-07 18:35 50.10764 14.26388 1169 ft 2 kts 246°
2026-05-07 18:35 50.10771 14.26412 1173 ft 2 kts 246°
2026-05-07 18:35 50.10775 14.26437 1172 ft 2 kts 291°
2026-05-07 18:35 50.10769 14.26461 1170 ft 2 kts 315°
2026-05-07 18:36 50.10767 14.26464 1170 ft 0 kts 306°
2026-05-07 18:41 50.10770 14.26457 1174 ft 5 kts 306°
2026-05-07 18:41 50.10816 14.26360 1174 ft 13 kts 307°
2026-05-07 18:42 50.10790 14.26239 1172 ft 15 kts 213°
2026-05-07 18:42 50.10702 14.26148 1171 ft 10 kts 216°
2026-05-07 18:42 50.10641 14.26081 1172 ft 12 kts 214°
2026-05-07 18:42 50.10594 14.26038 1170 ft 6 kts 209°
2026-05-07 18:43 50.10548 14.25988 1174 ft 15 kts 218°
2026-05-07 18:43 50.10468 14.26040 1176 ft 13 kts 126°
2026-05-07 18:43 50.10411 14.26158 1176 ft 15 kts 127°
2026-05-07 18:43 50.10245 14.26505 1176 ft 79 kts 126°
2026-05-07 18:44 50.10019 14.26971 1195 ft 29 kts 126°
2026-05-07 18:44 50.09900 14.27216 1201 ft 28 kts 127°
2026-05-07 18:44 50.09787 14.27412 1205 ft 20 kts 136°
2026-05-07 18:44 50.09688 14.27565 1206 ft 21 kts 135°
2026-05-07 18:45 50.09589 14.27718 1211 ft 20 kts 134°
2026-05-07 18:45 50.09489 14.27871 1214 ft 20 kts 135°
2026-05-07 18:45 50.09376 14.28046 1215 ft 25 kts 136°
2026-05-07 18:45 50.09248 14.28239 1213 ft 19 kts 135°
2026-05-07 18:46 50.09155 14.28273 1211 ft 14 kts 208°
2026-05-07 18:46 50.09086 14.28146 1209 ft 18 kts 255°
2026-05-07 18:46 50.09105 14.28048 1209 ft 0 kts 306°
2026-05-07 18:47 50.09170 14.27912 1212 ft 46 kts 307°
2026-05-07 18:48 50.09499 14.27231 1206 ft 108 kts 307°
2026-05-07 18:48 50.10048 14.26092 1212 ft 152 kts 306°
2026-05-07 18:48 50.10709 14.24759 1684 ft 159 kts 309°
2026-05-07 18:48 50.11405 14.23368 2318 ft 166 kts 310°
2026-05-07 18:49 50.12113 14.21934 3010 ft 167 kts 309°
2026-05-07 18:49 50.12843 14.20410 3415 ft 186 kts 309°
2026-05-07 18:49 50.13667 14.18688 3687 ft 211 kts 308°
2026-05-07 18:49 50.14593 14.16750 4081 ft 235 kts 307°
2026-05-07 18:50 50.15610 14.14621 4710 ft 250 kts 306°
2026-05-07 18:50 50.16646 14.12448 5533 ft 256 kts 305°
2026-05-07 18:50 50.17723 14.10186 6406 ft 262 kts 305°
2026-05-07 18:50 50.18823 14.07886 7213 ft 268 kts 305°
2026-05-07 18:51 50.19954 14.05530 8068 ft 271 kts 305°
2026-05-07 18:51 50.21091 14.03160 8944 ft 274 kts 306°
2026-05-07 18:51 50.22415 14.00957 9672 ft 283 kts 321°
2026-05-07 18:51 50.24151 13.99431 10407 ft 291 kts 338°
2026-05-07 18:52 50.26171 13.98754 10715 ft 314 kts 355°
2026-05-07 18:52 50.28423 13.98591 11064 ft 330 kts 357°
2026-05-07 18:52 50.30747 13.98442 11695 ft 336 kts 355°
2026-05-07 18:52 50.33102 13.98339 12391 ft 341 kts
2026-05-07 18:53 50.35276 13.98766 13042 ft 345 kts 11°
2026-05-07 18:53 50.37575 13.99965 13728 ft 352 kts 23°
2026-05-07 18:53 50.39795 14.01617 14374 ft 355 kts 24°
2026-05-07 18:53 50.42038 14.03293 15019 ft 357 kts 24°
2026-05-07 18:54 50.44293 14.04977 15623 ft 361 kts 24°
2026-05-07 18:54 50.46543 14.06659 16237 ft 364 kts 24°
2026-05-07 18:54 50.48832 14.08373 16867 ft 366 kts 24°
2026-05-07 18:54 50.51143 14.10110 17485 ft 369 kts 24°
2026-05-07 18:55 50.53471 14.11863 18136 ft 372 kts 24°
2026-05-07 18:55 50.55889 14.13330 18688 ft 374 kts 14°
2026-05-07 18:55 50.58449 14.14115 19266 ft 376 kts
2026-05-07 18:55 50.61048 14.14716 19873 ft 378 kts
2026-05-07 18:56 50.63658 14.15331 20461 ft 380 kts
2026-05-07 18:56 50.66282 14.15955 21035 ft 383 kts
2026-05-07 18:56 50.68934 14.16593 21608 ft 385 kts
2026-05-07 18:56 50.71591 14.17240 22160 ft 388 kts
2026-05-07 18:57 50.74270 14.17894 22687 ft 391 kts
2026-05-07 18:57 50.76970 14.18553 23239 ft 394 kts
2026-05-07 18:57 50.79690 14.19217 23763 ft 396 kts
2026-05-07 18:57 50.82427 14.19879 24227 ft 398 kts
2026-05-07 18:58 50.85136 14.20530 24692 ft 399 kts
2026-05-07 18:58 50.87888 14.21173 25183 ft 400 kts
2026-05-07 18:58 50.90670 14.21262 25590 ft 402 kts 353°
2026-05-07 18:58 50.93382 14.20180 25980 ft 404 kts 336°
2026-05-07 18:59 50.95799 14.17902 26363 ft 407 kts 323°
2026-05-07 18:59 50.98083 14.15195 26769 ft 409 kts 323°
2026-05-07 18:59 51.00359 14.12444 27160 ft 412 kts 323°
2026-05-07 18:59 51.02631 14.09671 27553 ft 414 kts 322°
2026-05-07 19:00 51.04925 14.06863 27910 ft 417 kts 322°
2026-05-07 19:00 51.07226 14.04045 28310 ft 419 kts 322°
2026-05-07 19:00 51.09518 14.01247 28685 ft 421 kts 322°
2026-05-07 19:00 51.11857 13.98404 29022 ft 424 kts 322°
2026-05-07 19:01 51.14211 13.95548 29377 ft 427 kts 322°
2026-05-07 19:01 51.16586 13.92665 29755 ft 429 kts 322°
2026-05-07 19:01 51.18961 13.89772 30128 ft 431 kts 322°
2026-05-07 19:01 51.21356 13.86845 30414 ft 434 kts 322°
2026-05-07 19:02 51.23756 13.83902 30712 ft 436 kts 322°
2026-05-07 19:02 51.26135 13.80981 30973 ft 439 kts 322°
2026-05-07 19:02 51.28563 13.77999 31283 ft 440 kts 322°
2026-05-07 19:02 51.30972 13.75039 31656 ft 441 kts 322°
2026-05-07 19:03 51.33431 13.72022 32038 ft 441 kts 321°
2026-05-07 19:03 51.35864 13.69035 32425 ft 441 kts 321°
2026-05-07 19:03 51.38298 13.66041 32816 ft 441 kts 321°
2026-05-07 19:03 51.40733 13.63038 33198 ft 442 kts 321°
2026-05-07 19:04 51.43167 13.60026 33586 ft 442 kts 321°
2026-05-07 19:04 51.45598 13.57011 33973 ft 443 kts 321°
2026-05-07 19:04 51.48007 13.54024 34081 ft 440 kts 321°
2026-05-07 19:05 51.52812 13.48051 34092 ft 435 kts 321°
2026-05-07 19:05 51.57598 13.42080 34091 ft 435 kts 321°
2026-05-07 19:06 51.62379 13.36092 34086 ft 435 kts 321°
2026-05-07 19:06 51.69509 13.27142 34087 ft 435 kts 321°
2026-05-07 19:07 51.74281 13.21145 34085 ft 435 kts 321°
2026-05-07 19:07 51.79054 13.15131 34100 ft 434 kts 321°
2026-05-07 19:08 51.83812 13.09108 34120 ft 434 kts 321°
2026-05-07 19:08 51.88552 13.03079 34111 ft 433 kts 321°
2026-05-07 19:09 51.93291 12.97049 34111 ft 433 kts 321°
2026-05-07 19:09 51.97993 12.91051 34116 ft 433 kts 321°
2026-05-07 19:10 52.02729 12.84994 34115 ft 433 kts 321°
2026-05-07 19:10 52.07452 12.78927 34122 ft 432 kts 321°
2026-05-07 19:11 52.12172 12.72854 34117 ft 432 kts 321°
2026-05-07 19:11 52.16889 12.66769 34116 ft 432 kts 321°
2026-05-07 19:12 52.21608 12.60674 34118 ft 432 kts 321°
2026-05-07 19:12 52.26289 12.54601 34117 ft 432 kts 321°
2026-05-07 19:13 52.30998 12.48469 34116 ft 432 kts 321°
2026-05-07 19:13 52.35704 12.42326 34119 ft 432 kts 321°
2026-05-07 19:14 52.40404 12.36174 34117 ft 432 kts 321°
2026-05-07 19:14 52.45099 12.30023 34118 ft 432 kts 321°
2026-05-07 19:15 52.49765 12.23881 33793 ft 424 kts 321°
2026-05-07 19:15 52.52021 12.20910 33529 ft 419 kts 321°
2026-05-07 19:15 52.54292 12.17915 33247 ft 416 kts 321°
2026-05-07 19:16 52.56542 12.14940 32969 ft 414 kts 321°
2026-05-07 19:16 52.58783 12.11974 32704 ft 412 kts 321°
2026-05-07 19:16 52.61010 12.09021 32436 ft 410 kts 320°
2026-05-07 19:16 52.63222 12.06082 32173 ft 408 kts 320°
2026-05-07 19:17 52.65427 12.03148 31914 ft 407 kts 320°
2026-05-07 19:17 52.67625 12.00221 31656 ft 405 kts 320°
2026-05-07 19:17 52.69811 11.97310 31368 ft 401 kts 320°
2026-05-07 19:17 52.71946 11.94466 30937 ft 398 kts 320°
2026-05-07 19:18 52.74103 11.91592 30505 ft 396 kts 320°
2026-05-07 19:18 52.76241 11.88735 30061 ft 394 kts 320°
2026-05-07 19:18 52.78364 11.85886 29622 ft 391 kts 320°
2026-05-07 19:18 52.80468 11.83058 29216 ft 388 kts 320°
2026-05-07 19:19 52.82559 11.80247 28811 ft 385 kts 320°
2026-05-07 19:19 52.84629 11.77466 28424 ft 382 kts 320°
2026-05-07 19:19 52.86686 11.74695 28029 ft 380 kts 320°
2026-05-07 19:19 52.88733 11.71933 27647 ft 378 kts 320°
2026-05-07 19:20 52.90766 11.69189 27267 ft 376 kts 320°
2026-05-07 19:20 52.92099 11.67390 27158 ft 370 kts 320°
2026-05-07 19:20 52.94093 11.64695 26627 ft 372 kts 320°
2026-05-07 19:20 52.96717 11.61140 26226 ft 366 kts 320°
2026-05-07 19:21 52.98052 11.59330 25883 ft 367 kts 320°
2026-05-07 19:21 53.00004 11.56677 25683 ft 359 kts 320°
2026-05-07 19:21 53.02550 11.53214 25232 ft 355 kts 320°
2026-05-07 19:21 53.04453 11.50624 24855 ft 352 kts 320°
2026-05-07 19:22 53.05731 11.48882 24594 ft 351 kts 320°
2026-05-07 19:22 53.07612 11.46311 24209 ft 349 kts 320°
2026-05-07 19:22 53.09464 11.43776 23838 ft 347 kts 320°
2026-05-07 19:22 53.11302 11.41257 23319 ft 348 kts 320°
2026-05-07 19:23 53.13211 11.38645 22757 ft 349 kts 320°
2026-05-07 19:23 53.15091 11.36076 22207 ft 350 kts 320°
2026-05-07 19:23 53.16978 11.33490 21683 ft 351 kts 320°
2026-05-07 19:23 53.18863 11.30902 21159 ft 351 kts 320°
2026-05-07 19:24 53.20747 11.28312 20651 ft 351 kts 320°
2026-05-07 19:24 53.22636 11.25712 20150 ft 351 kts 319°
2026-05-07 19:24 53.24507 11.23134 19646 ft 344 kts 320°
2026-05-07 19:24 53.26303 11.20657 19157 ft 333 kts 320°
2026-05-07 19:25 53.28086 11.18195 18673 ft 324 kts 320°
2026-05-07 19:25 53.29779 11.15857 18174 ft 315 kts 320°
2026-05-07 19:25 53.31453 11.13540 17631 ft 309 kts 320°
2026-05-07 19:25 53.33100 11.11254 17101 ft 306 kts 320°
2026-05-07 19:26 53.34731 11.08984 16572 ft 304 kts 320°
2026-05-07 19:26 53.36350 11.06732 16063 ft 301 kts 319°
2026-05-07 19:26 53.37954 11.04500 15546 ft 298 kts 320°
2026-05-07 19:26 53.39555 11.02272 15053 ft 302 kts 320°
2026-05-07 19:27 53.41189 10.99999 14561 ft 306 kts 320°
2026-05-07 19:27 53.42837 10.97703 14077 ft 310 kts 320°
2026-05-07 19:27 53.44482 10.95407 13561 ft 313 kts 320°
2026-05-07 19:27 53.46159 10.93063 13024 ft 315 kts 320°
2026-05-07 19:28 53.47854 10.90697 12504 ft 317 kts 320°
2026-05-07 19:28 53.49555 10.88317 11977 ft 319 kts 320°
2026-05-07 19:28 53.51262 10.85922 11469 ft 320 kts 320°
2026-05-07 19:28 53.52974 10.83511 10965 ft 321 kts 320°
2026-05-07 19:29 53.54692 10.81088 10450 ft 323 kts 320°
2026-05-07 19:29 53.56420 10.78652 9928 ft 324 kts 321°
2026-05-07 19:29 53.58152 10.76209 9366 ft 325 kts 320°
2026-05-07 19:29 53.59883 10.73766 8809 ft 325 kts 321°
2026-05-07 19:30 53.61555 10.71274 8258 ft 326 kts 313°
2026-05-07 19:30 53.62759 10.68044 7719 ft 328 kts 292°
2026-05-07 19:30 53.63195 10.64294 7246 ft 328 kts 270°
2026-05-07 19:30 53.62818 10.60578 7113 ft 315 kts 252°
2026-05-07 19:31 53.62169 10.57163 7129 ft 298 kts 252°
2026-05-07 19:31 53.61553 10.53916 7130 ft 284 kts 252°
2026-05-07 19:31 53.60954 10.50760 7125 ft 282 kts 252°
2026-05-07 19:31 53.60356 10.47608 7131 ft 283 kts 252°
2026-05-07 19:32 53.59758 10.44458 7124 ft 282 kts 252°
2026-05-07 19:32 53.59159 10.41312 7126 ft 282 kts 252°
2026-05-07 19:32 53.58560 10.38170 7128 ft 282 kts 252°
2026-05-07 19:32 53.57967 10.35067 7125 ft 272 kts 252°
2026-05-07 19:33 53.57409 10.32157 7126 ft 258 kts 252°
2026-05-07 19:33 53.56867 10.29348 7125 ft 249 kts 252°
2026-05-07 19:33 53.56328 10.26551 7134 ft 252 kts 252°
2026-05-07 19:33 53.55802 10.23830 7128 ft 251 kts 252°
2026-05-07 19:34 53.55490 10.20984 7128 ft 246 kts 276°
2026-05-07 19:34 53.55917 10.18211 7144 ft 245 kts 292°
2026-05-07 19:34 53.56556 10.15553 7126 ft 246 kts 295°
2026-05-07 19:34 53.57222 10.12890 7131 ft 245 kts 294°
2026-05-07 19:35 53.57634 10.10120 7136 ft 247 kts 269°
2026-05-07 19:35 53.57180 10.07361 7146 ft 249 kts 237°
2026-05-07 19:35 53.56087 10.05114 7144 ft 248 kts 226°
2026-05-07 19:35 53.54877 10.03042 7135 ft 248 kts 224°
2026-05-07 19:36 53.53652 10.00994 7133 ft 248 kts 224°
2026-05-07 19:36 53.52424 9.98951 7142 ft 248 kts 224°
2026-05-07 19:36 53.51197 9.96911 7131 ft 248 kts 224°
2026-05-07 19:36 53.49989 9.94907 6874 ft 247 kts 224°
2026-05-07 19:37 53.48782 9.92863 6561 ft 246 kts 227°
2026-05-07 19:37 53.47651 9.90711 6245 ft 245 kts 229°
2026-05-07 19:37 53.46548 9.88538 5927 ft 244 kts 229°
2026-05-07 19:37 53.45455 9.86359 5620 ft 243 kts 229°
2026-05-07 19:38 53.44375 9.84183 5319 ft 242 kts 229°
2026-05-07 19:38 53.43307 9.82011 5059 ft 239 kts 229°
2026-05-07 19:38 53.42250 9.79849 4982 ft 240 kts 229°
2026-05-07 19:38 53.41188 9.77671 4987 ft 242 kts 229°
2026-05-07 19:39 53.40144 9.75527 4985 ft 230 kts 229°
2026-05-07 19:39 53.39157 9.73494 4982 ft 222 kts 229°
2026-05-07 19:39 53.38185 9.71489 4985 ft 221 kts 229°
2026-05-07 19:39 53.37214 9.69486 4983 ft 221 kts 229°
2026-05-07 19:40 53.36243 9.67487 4986 ft 221 kts 229°
2026-05-07 19:40 53.35272 9.65486 4992 ft 221 kts 229°
2026-05-07 19:40 53.34278 9.63453 4638 ft 229 kts 229°
2026-05-07 19:40 53.33285 9.61374 4383 ft 227 kts 236°
2026-05-07 19:41 53.32822 9.58918 4163 ft 222 kts 272°
2026-05-07 19:41 53.33254 9.56508 3956 ft 216 kts 309°
2026-05-07 19:41 53.34398 9.54999 3753 ft 208 kts 345°
2026-05-07 19:41 53.35799 9.54804 3552 ft 200 kts 15°
2026-05-07 19:42 53.37011 9.55699 3341 ft 190 kts 38°
2026-05-07 19:42 53.38080 9.56947 3133 ft 185 kts 38°
2026-05-07 19:42 53.39118 9.58149 3008 ft 176 kts 38°
2026-05-07 19:42 53.40097 9.59280 2990 ft 166 kts 38°
2026-05-07 19:43 53.41036 9.60373 3014 ft 163 kts 38°
2026-05-07 19:43 53.41963 9.61456 2989 ft 162 kts 37°
2026-05-07 19:43 53.42913 9.62469 2982 ft 162 kts 33°
2026-05-07 19:43 53.43899 9.63386 2999 ft 162 kts 32°
2026-05-07 19:44 53.44900 9.64274 2999 ft 162 kts 31°
2026-05-07 19:44 53.45901 9.65160 3004 ft 162 kts 31°
2026-05-07 19:44 53.46842 9.66173 2993 ft 160 kts 50°
2026-05-07 19:44 53.47540 9.67620 3008 ft 159 kts 54°
2026-05-07 19:45 53.48227 9.69068 3008 ft 159 kts 53°
2026-05-07 19:45 53.48929 9.70479 3010 ft 159 kts 52°
2026-05-07 19:45 53.49643 9.71900 3011 ft 159 kts 52°
2026-05-07 19:45 53.50360 9.73325 3010 ft 159 kts 52°
2026-05-07 19:46 53.51085 9.74769 3011 ft 160 kts 52°
2026-05-07 19:46 53.51798 9.76197 3012 ft 160 kts 52°
2026-05-07 19:46 53.52503 9.77611 2934 ft 159 kts 53°
2026-05-07 19:46 53.53215 9.79038 2768 ft 159 kts 53°
2026-05-07 19:47 53.53923 9.80459 2567 ft 158 kts 53°
2026-05-07 19:47 53.54627 9.81873 2360 ft 157 kts 52°
2026-05-07 19:47 53.55327 9.83279 2145 ft 157 kts 53°
2026-05-07 19:47 53.56026 9.84684 1935 ft 156 kts 52°
2026-05-07 19:48 53.56703 9.86044 1733 ft 144 kts 53°
2026-05-07 19:48 53.57324 9.87294 1519 ft 136 kts 53°
2026-05-07 19:48 53.57926 9.88506 1345 ft 134 kts 52°
2026-05-07 19:48 53.58522 9.89707 1169 ft 133 kts 52°
2026-05-07 19:49 53.59108 9.90888 982 ft 130 kts 52°
2026-05-07 19:49 53.59681 9.92042 799 ft 129 kts 52°
2026-05-07 19:49 53.60257 9.93214 625 ft 130 kts 52°
2026-05-07 19:49 53.60833 9.94394 457 ft 132 kts 49°
2026-05-07 19:50 53.61421 9.95561 265 ft 132 kts 50°
2026-05-07 19:50 53.62001 9.96736 95 ft 129 kts 50°
2026-05-07 19:50 53.62540 9.97820 47 ft 102 kts 50°
2026-05-07 19:50 53.62895 9.98536 49 ft 65 kts 50°
2026-05-07 19:51 53.63121 9.98993 51 ft 47 kts 50°
2026-05-07 19:51 53.63293 9.99365 51 ft 22 kts 77°
2026-05-07 19:51 53.63284 9.99586 46 ft 10 kts 99°
2026-05-07 19:51 53.63280 9.99635 50 ft 4 kts 99°
2026-05-07 19:52 53.63274 9.99694 50 ft 3 kts 99°
2026-05-07 19:52 53.63265 9.99735 48 ft 4 kts 130°
2026-05-07 19:52 53.63230 9.99759 50 ft 7 kts 157°
2026-05-07 19:52 53.63178 9.99801 50 ft 10 kts 153°
2026-05-07 19:53 53.63123 9.99879 50 ft 11 kts 102°
2026-05-07 19:53 53.63166 10.00002 51 ft 14 kts 51°
2026-05-07 19:53 53.63228 10.00135 51 ft 10 kts 52°
2026-05-07 19:53 53.63231 10.00243 50 ft 11 kts 153°
2026-05-07 19:54 53.63168 10.00278 49 ft 9 kts 116°
2026-05-07 19:54 53.63169 10.00362 51 ft 0 kts 86°